Location: Cartersville (historical)
(42.9944°N, 93.0869°W)
Time: 01:49:58
(UTC+00:00)

ACS3 Solar Sail - Pass Details

Date: 10 October 2024
Orbit: 961 x 1022 km, 97.5° (Epoch: 03 November)

Event Time Altitude Azimuth Distance (km) Brightness Sun altitude
Exits shadow 03:31:38 21° 259° (WSW) 2,107 3.8 -41.4°
Maximum altitude 03:32:34 22° 271° (W) 2,077 3.8 -41.5°
Drops below altitude 10° 03:37:23 10° 320° (NW) 2,837 4.8 -42.2°
Sets 03:40:35 0° 335° (NNW) 3,795 5.6 -42.7°
